EJU75ZX LDSP-LIRN

Flight info

Callsign EJU75ZX
Flight time 0h 45m
Altitude 33000
Route VELUG DCT SUXUB DCT ERIKA
Aircraft A320/M-SDE2E3FGHIJ1RWXYZ/LB1

Departure

Time 2026-05-05 23:54
Airport Split Saint Jerome Airport (LDSP)

Arrival

Time 2026-05-06 00:39
Airport Naples International Airport (LIRN)
Time Latitude Longitude Altitude Speed Heading
2026-05-05 23:38 43.53692 16.29810 68 ft 0 kts 113°
2026-05-05 23:47 43.53698 16.29790 60 ft 4 kts 116°
2026-05-05 23:48 43.53711 16.29758 68 ft 4 kts 122°
2026-05-05 23:48 43.53718 16.29744 60 ft 0 kts 122°
2026-05-05 23:50 43.53697 16.29766 63 ft 8 kts 170°
2026-05-05 23:50 43.53685 16.29719 66 ft 10 kts 266°
2026-05-05 23:51 43.53681 16.29591 70 ft 14 kts 278°
2026-05-05 23:51 43.53696 16.29473 81 ft 12 kts 268°
2026-05-05 23:51 43.53634 16.29327 83 ft 25 kts 233°
2026-05-05 23:51 43.53517 16.29115 87 ft 29 kts 232°
2026-05-05 23:52 43.53403 16.28910 89 ft 27 kts 233°
2026-05-05 23:52 43.53286 16.28701 87 ft 24 kts 232°
2026-05-05 23:52 43.53217 16.28625 85 ft 10 kts 200°
2026-05-05 23:52 43.53219 16.28579 86 ft 8 kts 14°
2026-05-05 23:53 43.53259 16.28655 87 ft 29 kts 51°
2026-05-05 23:53 43.53415 16.28934 89 ft 79 kts 52°
2026-05-05 23:53 43.53886 16.29778 73 ft 140 kts 52°
2026-05-05 23:53 43.54544 16.30972 412 ft 158 kts 53°
2026-05-05 23:54 43.55091 16.32228 1172 ft 155 kts 82°
2026-05-05 23:54 43.54785 16.33623 1823 ft 156 kts 132°
2026-05-05 23:54 43.53998 16.34584 2626 ft 149 kts 142°
2026-05-05 23:54 43.53200 16.35508 3215 ft 151 kts 140°
2026-05-05 23:55 43.52304 16.36407 3536 ft 172 kts 148°
2026-05-05 23:55 43.51234 16.37330 3893 ft 188 kts 149°
2026-05-05 23:55 43.50123 16.38275 4533 ft 187 kts 149°
2026-05-05 23:55 43.48977 16.39253 4875 ft 205 kts 151°
2026-05-05 23:56 43.47566 16.39952 5067 ft 230 kts 173°
2026-05-05 23:56 43.45901 16.39859 5437 ft 252 kts 195°
2026-05-05 23:56 43.44316 16.38748 6054 ft 263 kts 221°
2026-05-05 23:56 43.43113 16.36838 6848 ft 266 kts 233°
2026-05-05 23:57 43.41979 16.34792 7616 ft 272 kts 233°
2026-05-05 23:57 43.40813 16.32717 8458 ft 275 kts 233°
2026-05-05 23:57 43.39626 16.30642 9338 ft 277 kts 232°
2026-05-05 23:57 43.38445 16.28547 10226 ft 278 kts 233°
2026-05-05 23:58 43.37241 16.26365 10602 ft 298 kts 233°
2026-05-05 23:58 43.35950 16.24028 11027 ft 313 kts 233°
2026-05-05 23:58 43.34616 16.21626 11695 ft 319 kts 233°
2026-05-05 23:58 43.33260 16.19191 12412 ft 323 kts 233°
2026-05-05 23:59 43.31886 16.16724 13134 ft 327 kts 233°
2026-05-05 23:59 43.30495 16.14225 13828 ft 332 kts 234°
2026-05-05 23:59 43.29083 16.11686 14450 ft 335 kts 234°
2026-05-05 23:59 43.27662 16.09135 15065 ft 338 kts 234°
2026-05-06 00:00 43.26222 16.06557 15681 ft 342 kts 234°
2026-05-06 00:00 43.24792 16.03996 16310 ft 344 kts 234°
2026-05-06 00:00 43.23310 16.01344 16937 ft 347 kts 234°
2026-05-06 00:00 43.21835 15.98707 17590 ft 350 kts 234°
2026-05-06 00:01 43.20366 15.96089 18224 ft 352 kts 234°
2026-05-06 00:01 43.18865 15.93417 18766 ft 355 kts 234°
2026-05-06 00:01 43.17353 15.90725 19295 ft 358 kts 234°
2026-05-06 00:01 43.15832 15.88017 19840 ft 360 kts 233°
2026-05-06 00:02 43.14300 15.85296 20364 ft 362 kts 233°
2026-05-06 00:02 43.12754 15.82554 20891 ft 365 kts 233°
2026-05-06 00:02 43.11180 15.79764 21401 ft 367 kts 233°
2026-05-06 00:02 43.09634 15.77028 21887 ft 370 kts 233°
2026-05-06 00:03 43.08056 15.74235 22382 ft 372 kts 233°
2026-05-06 00:03 43.06470 15.71429 22873 ft 374 kts 233°
2026-05-06 00:03 43.04872 15.68602 23356 ft 377 kts 233°
2026-05-06 00:03 43.03263 15.65757 23792 ft 379 kts 233°
2026-05-06 00:04 43.01645 15.62897 24206 ft 381 kts 233°
2026-05-06 00:04 43.00021 15.60029 24625 ft 382 kts 233°
2026-05-06 00:04 42.98390 15.57156 25045 ft 383 kts 233°
2026-05-06 00:04 42.96756 15.54282 25465 ft 384 kts 233°
2026-05-06 00:05 42.93462 15.48508 26244 ft 387 kts 234°
2026-05-06 00:05 42.91806 15.45609 26644 ft 388 kts 234°
2026-05-06 00:05 42.90059 15.42795 27035 ft 391 kts 228°
2026-05-06 00:06 42.88133 15.40167 27424 ft 392 kts 228°
2026-05-06 00:06 42.86197 15.37546 27813 ft 393 kts 228°
2026-05-06 00:06 42.84248 15.34920 28177 ft 395 kts 228°
2026-05-06 00:06 42.82293 15.32287 28553 ft 396 kts 228°
2026-05-06 00:07 42.80332 15.29644 28938 ft 397 kts 229°
2026-05-06 00:07 42.78362 15.26986 29254 ft 399 kts 229°
2026-05-06 00:07 42.76384 15.24320 29576 ft 402 kts 229°
2026-05-06 00:07 42.74394 15.21645 29920 ft 403 kts 229°
2026-05-06 00:08 42.72390 15.18957 30220 ft 405 kts 229°
2026-05-06 00:08 42.70382 15.16263 30491 ft 406 kts 229°
2026-05-06 00:08 42.68365 15.13559 30744 ft 408 kts 229°
2026-05-06 00:08 42.66339 15.10842 30990 ft 410 kts 229°
2026-05-06 00:09 42.64302 15.08117 31273 ft 411 kts 229°
2026-05-06 00:09 42.62272 15.05401 31599 ft 410 kts 229°
2026-05-06 00:09 42.60238 15.02678 31885 ft 411 kts 228°
2026-05-06 00:09 42.58200 14.99954 32196 ft 411 kts 228°
2026-05-06 00:10 42.56164 14.97238 32544 ft 410 kts 228°
2026-05-06 00:10 42.54134 14.94529 32886 ft 409 kts 228°
2026-05-06 00:10 42.52104 14.91823 33005 ft 406 kts 227°
2026-05-06 00:10 42.50122 14.89191 33010 ft 394 kts 227°
2026-05-06 00:11 42.48171 14.86601 33009 ft 392 kts 227°
2026-05-06 00:11 42.44315 14.81482 33007 ft 390 kts 227°
2026-05-06 00:12 42.40442 14.76343 33010 ft 390 kts 227°
2026-05-06 00:12 42.36565 14.71216 33008 ft 390 kts 227°
2026-05-06 00:13 42.32684 14.66098 33011 ft 390 kts 227°
2026-05-06 00:13 42.28801 14.60987 32989 ft 389 kts 227°
2026-05-06 00:14 42.24925 14.55878 32993 ft 389 kts 227°
2026-05-06 00:14 42.21049 14.50773 32994 ft 389 kts 227°
2026-05-06 00:15 42.17169 14.45689 32881 ft 387 kts 227°
2026-05-06 00:15 42.15254 14.43191 32619 ft 379 kts 227°
2026-05-06 00:15 42.13368 14.40736 32357 ft 375 kts 227°
2026-05-06 00:15 42.11499 14.38304 32107 ft 373 kts 227°
2026-05-06 00:16 42.09636 14.35875 31844 ft 372 kts 227°
2026-05-06 00:16 42.07778 14.33451 31587 ft 371 kts 227°
2026-05-06 00:16 42.05926 14.31036 31341 ft 370 kts 227°
2026-05-06 00:16 42.04086 14.28640 31063 ft 366 kts 228°
2026-05-06 00:17 42.02270 14.26273 30644 ft 361 kts 228°
2026-05-06 00:17 42.00474 14.23930 30241 ft 358 kts 228°
2026-05-06 00:17 41.98692 14.21610 29793 ft 355 kts 228°
2026-05-06 00:17 41.96929 14.19321 29412 ft 350 kts 228°
2026-05-06 00:18 41.95189 14.17070 29017 ft 344 kts 228°
2026-05-06 00:18 41.93476 14.14856 28648 ft 339 kts 228°
2026-05-06 00:18 41.91787 14.12677 28276 ft 334 kts 228°
2026-05-06 00:18 41.90121 14.10590 27923 ft 332 kts 223°
2026-05-06 00:19 41.88200 14.08863 27501 ft 335 kts 212°
2026-05-06 00:19 41.86030 14.07698 27081 ft 339 kts 201°
2026-05-06 00:19 41.83692 14.07122 26646 ft 342 kts 194°
2026-05-06 00:19 41.81341 14.06692 26213 ft 340 kts 194°
2026-05-06 00:20 41.79000 14.06256 25772 ft 340 kts 194°
2026-05-06 00:20 41.76660 14.05816 25313 ft 340 kts 194°
2026-05-06 00:20 41.74323 14.05374 24846 ft 339 kts 194°
2026-05-06 00:20 41.71985 14.04933 24380 ft 339 kts 194°
2026-05-06 00:21 41.69649 14.04493 23906 ft 340 kts 194°
2026-05-06 00:21 41.67305 14.04052 23387 ft 341 kts 194°
2026-05-06 00:21 41.64918 14.03938 22882 ft 348 kts 180°
2026-05-06 00:21 41.62532 14.04664 22418 ft 356 kts 165°
2026-05-06 00:22 41.60331 14.06250 21956 ft 365 kts 148°
2026-05-06 00:22 41.58473 14.08602 21463 ft 370 kts 137°
2026-05-06 00:22 41.56739 14.11144 20985 ft 370 kts 137°
2026-05-06 00:22 41.55006 14.13677 20514 ft 369 kts 137°
2026-05-06 00:23 41.53273 14.16201 20039 ft 370 kts 136°
2026-05-06 00:23 41.51530 14.18730 19551 ft 370 kts 136°
2026-05-06 00:23 41.49789 14.21256 19085 ft 370 kts 136°
2026-05-06 00:23 41.48041 14.23786 18607 ft 370 kts 136°
2026-05-06 00:24 41.46299 14.26299 18266 ft 366 kts 136°
2026-05-06 00:24 41.44565 14.28800 17765 ft 366 kts 136°
2026-05-06 00:24 41.42853 14.31264 17422 ft 360 kts 136°
2026-05-06 00:24 41.41030 14.33521 16959 ft 356 kts 142°
2026-05-06 00:25 41.39192 14.35662 16530 ft 355 kts 142°
2026-05-06 00:25 41.37348 14.37819 16228 ft 349 kts 141°
2026-05-06 00:25 41.35554 14.39921 16100 ft 339 kts 141°
2026-05-06 00:25 41.33804 14.41939 15832 ft 326 kts 146°
2026-05-06 00:26 41.31940 14.43558 15332 ft 317 kts 151°
2026-05-06 00:26 41.30073 14.45099 14785 ft 314 kts 151°
2026-05-06 00:26 41.28228 14.46623 14249 ft 311 kts 151°
2026-05-06 00:26 41.26351 14.47982 13657 ft 304 kts 166°
2026-05-06 00:27 41.24313 14.48133 13081 ft 291 kts 197°
2026-05-06 00:27 41.22573 14.46907 12458 ft 283 kts 227°
2026-05-06 00:27 41.21430 14.44806 11783 ft 281 kts 239°
2026-05-06 00:27 41.20404 14.42595 11141 ft 281 kts 239°
2026-05-06 00:28 41.19385 14.40388 10535 ft 279 kts 239°
2026-05-06 00:28 41.18258 14.38309 9943 ft 279 kts 221°
2026-05-06 00:28 41.16506 14.37242 9584 ft 282 kts 188°
2026-05-06 00:28 41.14569 14.37596 9202 ft 286 kts 161°
2026-05-06 00:29 41.12780 14.38776 8782 ft 289 kts 151°
2026-05-06 00:29 41.11110 14.40251 8398 ft 288 kts 147°
2026-05-06 00:29 41.09496 14.41821 8005 ft 288 kts 142°
2026-05-06 00:29 41.08386 14.43975 7837 ft 284 kts 107°
2026-05-06 00:30 41.08353 14.46507 7711 ft 273 kts 71°
2026-05-06 00:30 41.09279 14.48623 7571 ft 262 kts 47°
2026-05-06 00:30 41.10443 14.50454 7291 ft 259 kts 52°
2026-05-06 00:30 41.11466 14.52409 7046 ft 256 kts 56°
2026-05-06 00:31 41.12417 14.54418 7009 ft 258 kts 58°
2026-05-06 00:31 41.13059 14.56627 7010 ft 259 kts 83°
2026-05-06 00:31 41.12935 14.58984 7007 ft 257 kts 109°
2026-05-06 00:31 41.12103 14.61051 7020 ft 254 kts 134°
2026-05-06 00:32 41.10766 14.62487 7017 ft 250 kts 151°
2026-05-06 00:32 41.09302 14.63701 7008 ft 245 kts 152°
2026-05-06 00:32 41.07801 14.64590 6900 ft 231 kts 174°
2026-05-06 00:32 41.06254 14.64512 6753 ft 218 kts 200°
2026-05-06 00:33 41.04954 14.63599 6570 ft 210 kts 224°
2026-05-06 00:33 41.04069 14.62098 6306 ft 207 kts 239°
2026-05-06 00:33 41.03316 14.60472 6005 ft 208 kts 240°
2026-05-06 00:33 41.02558 14.58838 5682 ft 206 kts 240°
2026-05-06 00:34 41.01815 14.57245 5388 ft 200 kts 239°
2026-05-06 00:34 41.01086 14.55683 5132 ft 199 kts 239°
2026-05-06 00:34 41.00364 14.54139 4823 ft 195 kts 239°
2026-05-06 00:34 40.99657 14.52628 4525 ft 190 kts 239°
2026-05-06 00:35 40.98971 14.51160 4244 ft 185 kts 239°
2026-05-06 00:35 40.98297 14.49720 3973 ft 183 kts 239°
2026-05-06 00:35 40.97629 14.48294 3702 ft 181 kts 239°
2026-05-06 00:35 40.96971 14.46889 3442 ft 178 kts 238°
2026-05-06 00:36 40.96321 14.45502 3189 ft 177 kts 238°
2026-05-06 00:36 40.95677 14.44127 2926 ft 175 kts 238°
2026-05-06 00:36 40.95037 14.42763 2675 ft 174 kts 238°
2026-05-06 00:36 40.94399 14.41404 2414 ft 173 kts 238°
2026-05-06 00:37 40.93780 14.40086 2165 ft 164 kts 237°
2026-05-06 00:37 40.93195 14.38840 1943 ft 153 kts 237°
2026-05-06 00:37 40.92647 14.37673 1699 ft 147 kts 238°
2026-05-06 00:37 40.92114 14.36539 1475 ft 144 kts 238°
2026-05-06 00:38 40.91584 14.35414 1277 ft 144 kts 238°
2026-05-06 00:38 40.91054 14.34285 1061 ft 144 kts 238°
2026-05-06 00:38 40.90523 14.33156 837 ft 144 kts 238°
2026-05-06 00:38 40.89993 14.32028 625 ft 144 kts 238°
2026-05-06 00:39 40.89461 14.30907 403 ft 144 kts 238°
2026-05-06 00:39 40.88941 14.29795 256 ft 135 kts 238°
2026-05-06 00:39 40.88522 14.28904 271 ft 92 kts 238°
2026-05-06 00:39 40.88273 14.28379 283 ft 42 kts 238°
2026-05-06 00:40 40.88145 14.28109 292 ft 26 kts 238°
2026-05-06 00:40 40.88066 14.28049 295 ft 13 kts 152°
2026-05-06 00:40 40.88021 14.28136 293 ft 14 kts 73°
2026-05-06 00:40 40.88067 14.28268 288 ft 18 kts 91°
2026-05-06 00:41 40.88055 14.28404 286 ft 15 kts 97°
2026-05-06 00:41 40.88036 14.28525 288 ft 11 kts 136°
2026-05-06 00:41 40.87970 14.28495 288 ft 10 kts 217°
2026-05-06 00:41 40.87939 14.28418 288 ft 10 kts 270°
2026-05-06 00:42 40.87936 14.28357 292 ft 3 kts 233°
2026-05-06 00:42 40.87914 14.28348 291 ft 4 kts 189°
2026-05-06 00:42 40.87888 14.28344 290 ft 3 kts 187°
2026-05-06 00:42 40.87876 14.28342 290 ft 1 kts 187°
2026-05-06 00:43 40.87875 14.28342 290 ft 0 kts 187°